#timestamp,LO_Frequency,Hit,StdDev 
1527062415.5,286047001.9,N
1527062435.3,286047004.0,N
1527062455.2,286047001.8,N
1527062475.9,286047004.1,N
1527062495.7,286047001.4,N
1527062515.6,286047001.4,N
1527062535.4,286047001.9,N
1527062555.3,286047000.4,N
1527062575.1,286047000.7,N
1527062576.0,286047000.7,N
1527062595.8,286047000.4,N
1527062615.7,286047001.7,N
1527062635.5,286047001.8,N
1527062655.3,286047002.6,N
1527062675.2,286047002.8,N
1527062695.0,286046999.7,N
1527062695.9,286046999.7,N
1527062715.8,286046997.7,N
1527062735.6,286046995.6,Y
1527062755.4,286046993.6,P
1527062775.3,286046991.9,N
1527062795.1,286046993.1,N
1527062815.9,286046990.3,N
1527062835.7,286046994.4,N
1527062855.5,286046997.9,N
1527062875.4,286046995.5,N
1527062895.2,286046994.3,N
1527062915.0,286046991.9,N
1527062915.9,286046991.9,N
1527062935.8,286046992.5,N
1527062955.6,286046992.6,N
1527063005.5,286046997.9,E
1527063015.4,286046994.9,N
1527063035.2,286046996.0,P
1527063055.1,286046997.0,P
1527063056.0,286046997.0,Y
1527063075.8,286047001.4,P
1527063095.7,286047000.5,N
1527063115.5,286046998.1,N
1527063135.3,286046999.3,N
1527063155.2,286046999.1,N
1527063175.0,286047003.8,N
1527063175.9,286047003.8,N
1527063195.8,286047004.7,N
1527063215.6,286047004.5,N
1527063235.4,286047003.4,N
1527063255.3,286047004.6,N
1527063275.1,286047008.9,Y
1527063295.8,286047006.9,P
1527063315.7,286047004.7,N
1527063335.5,286047005.7,N
1527063355.4,286047006.0,Y
1527063375.2,286047002.4,P
1527063395.0,286047001.0,N
1527063395.9,286047001.0,N
1527063415.8,286047002.7,N
1527063435.6,286047002.1,N
1527063455.5,286046999.8,N
1527063475.3,286047000.9,N
1527063495.1,286046999.0,N
1527063515.9,286046998.3,N
1527063535.7,286046996.7,N
1527063555.5,286046997.9,N
1527063575.4,286046996.1,N
1527063595.2,286046998.0,N
1527063615.1,286046997.7,N
1527063616.0,286046997.7,N
1527063635.8,286046996.8,N
1527063655.6,286046996.1,N
1527063675.5,286046992.6,Y
1527063695.3,286046990.1,P
1527063715.2,286046996.3,N
1527063735.9,286046995.4,N
1527063755.7,286046997.7,N
1527063775.6,286046996.5,N
1527063795.4,286046996.1,N
1527063815.2,286046992.0,Y
1527063835.1,286046995.2,P
1527063836.0,286046995.2,P
1527063855.8,286046994.9,P
1527063875.7,286046995.3,Y
1527063895.5,286047002.2,P
1527063915.3,286046999.9,N
1527063935.2,286046998.8,N
1527063955.0,286046999.6,N
1527063955.9,286046999.6,N
1527063975.8,286046998.2,N
1527063995.6,286047001.2,N
1527064015.4,286046999.1,N
1527064035.3,286046998.1,N
1527064055.1,286047000.2,N
1527064075.8,286047000.9,N
1527064095.7,286047000.7,N
1527064115.5,286046998.2,N
1527064135.4,286046998.1,N
1527064155.2,286046999.8,N
1527064175.0,286047003.9,N
1527064175.9,286047003.9,N
1527064195.8,286047004.2,N
1527064215.6,286047002.3,N
1527064235.4,286046999.4,N
1527064255.3,286046996.5,N
1527064275.1,286046996.9,N
1527064295.9,286047000.1,N
1527064315.7,286047000.4,N
1527064335.5,286046998.7,N
1527064355.4,286047001.0,N
1527064375.2,286047000.8,N
1527064395.0,286046998.3,N
1527064395.9,286046998.3,N
1527064415.8,286046999.1,N
1527064435.6,286047000.6,N
1527064455.5,286046998.1,N
1527064475.3,286046996.6,N
1527064495.1,286046998.6,N
1527064515.9,286046999.8,N
1527064535.7,286046999.5,N
1527064555.6,286046995.4,N
1527064575.4,286046996.2,N
1527064595.2,286046996.2,N
1527064615.1,286046995.1,N
1527064616.0,286046995.1,N
1527064635.8,286047011.9,Y
1527064655.6,286046994.9,P
1527064675.5,286046995.9,N
1527064695.3,286046993.4,P
1527064715.2,286046995.7,N
1527064735.9,286046997.5,N
1527064755.7,286046998.0,N
1527064775.6,286046996.3,N
1527064795.4,286046997.5,N
1527064815.2,286046999.5,N
1527064835.1,286046998.0,N
1527064836.0,286046998.0,N
1527064855.8,286046996.0,N
1527064875.7,286046993.3,Y
1527064895.5,286046997.7,P
1527064915.3,286046997.1,P
1527064935.2,286046999.3,N
1527064955.0,286046996.8,Y
1527064955.9,286046996.8,P
1527064975.8,286047002.4,P
1527064995.6,286047002.1,N
1527065015.4,286046999.7,N
1527065035.3,286047000.0,N
1527065055.1,286047001.0,N
1527065075.8,286047000.4,N
1527065095.7,286046998.2,N
1527065115.5,286047002.6,N
1527065135.4,286047002.6,N
1527065155.2,286046999.9,N
1527065175.0,286046998.1,N
1527065175.9,286046998.1,N
1527065195.8,286046998.4,N
1527065215.6,286046998.5,N
1527065235.5,286047002.3,N
1527065255.3,286047002.5,N
1527065275.1,286047002.6,N
1527065295.9,286047002.2,N
1527065315.7,286047002.5,N
1527065335.5,286047002.0,N
1527065355.4,286047001.0,N
1527065375.2,286047001.0,N
1527065395.1,286047000.7,N
1527065396.0,286047000.7,N
1527065415.8,286046998.2,N
1527065435.6,286046998.3,N
1527065455.5,286046998.6,N
1527065475.3,286047001.0,N
1527065495.1,286046998.4,N
1527065515.9,286047001.1,N
1527065535.7,286046998.3,N
1527065555.6,286046998.3,N
1527065575.4,286046998.3,N
1527065595.2,286046999.4,N
1527065615.1,286047000.4,N
1527065616.0,286047000.4,N
1527065635.8,286047000.2,N
1527065655.7,286047002.8,N
1527065675.5,286047001.7,N
1527065695.3,286047001.9,N
1527065715.2,286046999.9,N
1527065735.9,286046999.8,N
1527065755.7,286047004.3,N
1527065775.6,286047004.4,N
1527065795.4,286047002.3,N
1527065815.3,286047001.5,N
1527065835.1,286047001.9,N
1527065836.0,286047001.9,N
1527065855.8,286047002.4,N
1527065875.7,286047000.1,N
1527065895.5,286047002.8,N
1527065915.3,286047000.2,N
1527065935.2,286047000.4,N
1527065955.0,286047001.0,N
1527065955.9,286047001.0,N
1527065975.8,286047002.8,N
1527065995.6,286047000.1,N
